Flag for Germany Weather past 2 weeks in Winsen (Luhe), Lower Saxony, Germany

Now
41 °F

Clear.


Feels Like: 38 °F
Forecast: 38 / 51 °F
Wind: 5 mph from West

Location: Hamburg-Finkenwerder

Current Time: Mar 6, 2015 at 7:27:05 AM

Latest Report: Mar 6, 2015 at 6:50 AM


Visibility: 10 mi

Pressure: 30.48 "Hg

Humidity: 93%

Dew point: 39 °F

Location of Winsen (Luhe)Location

Historic Weather in Winsen (Luhe) — Graph

°F

Winsen (Luhe) temperature yesterday

Maximum temperature yesterday: 45 °F (at 12:20 PM)
Minimum temperature yesterday: 36 °F (at 6:20 AM)
Average temperature yesterday: 42 °F

Past Weeks' High & Low Weather Summary

 TemperatureHumidityPressure
High46 °F (Feb 25, 3:20 PM)100% (Feb 19, 6:20 AM)30.54 "Hg (Feb 19, 6:20 AM)
Low32 °F (Feb 19, 6:20 AM)61% (Feb 28, 2:50 PM)29.24 "Hg (Feb 21, 10:50 AM)
Average40 °F88%29.87 "Hg
* Reported Feb 19 6:20 AM — Mar 6 6:20 AM, Winsen (Luhe), Weather by CustomWeather, © 2015

Note: Actual official high and low records may vary slightly from our data, if they occured in-between our weather recording intervals... More about our weather records

Advertising

Winsen (Luhe) weather history for previous 24 hours

 ConditionsComfort  
Time TempWeatherWind HumidityBarometerVisibility
6:20 AM
Fri, Mar 6
41 °FPassing clouds.6 mph93%30.48 "HgN/A
5:50 AM41 °FPassing clouds.6 mph93%30.51 "HgN/A
8:20 PM
Thu, Mar 5
43 °FPassing clouds.5 mph81%30.54 "HgN/A
7:50 PM43 °FPartly cloudy.5 mph81%30.54 "HgN/A
7:20 PM43 °FPartly cloudy.6 mph81%30.54 "HgN/A
6:50 PM43 °FClear.9 mph81%30.54 "Hg10 mi
6:20 PM43 °FClear.7 mph87%30.54 "Hg10 mi
5:50 PM43 °FPartly sunny.9 mph87%30.54 "HgN/A
5:20 PM43 °FPartly sunny.8 mph81%30.54 "HgN/A
4:50 PM45 °FPartly sunny.9 mph76%30.54 "HgN/A
4:20 PM45 °FBroken clouds.8 mph71%30.54 "HgN/A
3:50 PM45 °FPartly sunny.14 mph71%30.54 "HgN/A
3:20 PM45 °FBroken clouds.14 mph71%30.51 "HgN/A
2:50 PM45 °FScattered clouds.13 mph76%30.51 "HgN/A
2:20 PM45 °FScattered clouds.16 mph71%30.51 "HgN/A
1:50 PM45 °FScattered clouds.15 mph81%30.51 "HgN/A
1:20 PM45 °FScattered clouds.16 mph81%30.51 "HgN/A
12:50 PM45 °FScattered clouds.16 mph87%30.51 "HgN/A
12:20 PM45 °FScattered clouds.10 mph87%30.51 "HgN/A
11:50 AM43 °FScattered clouds.12 mph93%30.51 "HgN/A
11:20 AM43 °FScattered clouds.13 mph93%30.51 "HgN/A
10:50 AM43 °FScattered clouds.10 mph100%30.51 "HgN/A
10:20 AM41 °FBroken clouds.12 mph100%30.51 "HgN/A
9:50 AM41 °FPartly sunny.9 mph100%30.51 "HgN/A
9:20 AM39 °FPartly sunny.10 mph100%30.51 "HgN/A
8:50 AM39 °FPartly sunny.8 mph100%30.51 "HgN/A
8:20 AM37 °FPartly sunny.9 mph100%30.48 "HgN/A
7:50 AM36 °FPartly sunny.9 mph100%30.48 "HgN/A
7:20 AM36 °FScattered clouds.8 mph100%30.48 "HgN/A
Weather by CustomWeather, © 2015

See weather overviewHow to use our weather pages